User: anonymous   Login
Location: Boiro
(42.6475°N, 8.8834°W)
Time: 05:49:45
(UTC+01:00)
Language:

DELFI C3 - Orbit

View from above orbital plane
View from above orbital plane
View from above satellite
View from above satellite

Ground track
Ground track

The orbit data is extracted from the following two-line orbital elements,

1 32789U 08021G   22024.60556719  .00004115  00000-0  25307-3 0  9990
2 32789  97.3565  56.3599 0013098 100.2170 260.0538 15.10501418750298
Epoch (UTC): 24 January 2022 14:32:01
Eccentricity: 0.0013098
inclination: 97.3565°
perigee height: 525 km
apogee height: 544 km
right ascension of ascending node: 56.3599°
argument of perigee: 100.2170°
revolutions per day: 15.10501418
mean anomaly at epoch: 260.0538°
orbit number at epoch: 75029

The dashed part of the orbit path shows where the satellite is in the earth's shadow,  

DLR